This is the latest recevied weather packets stored in our database for station/object N5CSU. If no packets are shown the sender has not sent any weather packets the latest 10 day(s).
| Time | Temp. | Humidity | Pressure | Rain* | Wind** | Luminosity | Snow |
|---|---|---|---|---|---|---|---|
| 1778166429 | 17.78° C | 72% | 1020.2 hPa | 0 mm | - | 17 W/m² | - |
| 1778166126 | 17.22° C | 71% | 1020.2 hPa | 0 mm | - | 14 W/m² | - |
| 1778165821 | 17.22° C | 71% | 1020.4 hPa | 0 mm | - | 15 W/m² | - |
| 1778165518 | 16.67° C | 73% | 1020.3 hPa | 0 mm | - | 14 W/m² | - |
| 1778165215 | 16.67° C | 72% | 1020.4 hPa | 0 mm | - | 12 W/m² | - |
| 1778164913 | 16.67° C | 74% | 1020.3 hPa | 0 mm | - | 11 W/m² | - |
| 1778164610 | 16.67° C | 77% | 1020.2 hPa | 0 mm | - | 12 W/m² | - |
| 1778164307 | 16.11° C | 77% | 1020.3 hPa | 0 mm | - | 12 W/m² | - |
| 1778164003 | 16.11° C | 77% | 1020.2 hPa | 0 mm | - | 11 W/m² | - |
| 1778163700 | 16.11° C | 77% | 1020.5 hPa | 0 mm | - | 11 W/m² | - |
| 1778163396 | 15.56° C | 79% | 1020.5 hPa | 0 mm | - | 12 W/m² | - |
| 1778163093 | 15.56° C | 79% | 1020.4 hPa | 0 mm | - | 12 W/m² | - |
| 1778162789 | 15° C | 81% | 1020.6 hPa | 0 mm | - | 11 W/m² | - |
| 1778162487 | 15° C | 81% | 1020.6 hPa | 0 mm | - | 12 W/m² | - |
| 1778162184 | 15° C | 80% | 1020.7 hPa | 0 mm | - | 10 W/m² | - |
| 1778161881 | 15° C | 81% | 1020.7 hPa | 0 mm | - | 11 W/m² | - |
| 1778161577 | 14.44° C | 81% | 1020.9 hPa | 0 mm | - | 11 W/m² | - |
| 1778161273 | 14.44° C | 85% | 1020.9 hPa | 0 mm | - | 11 W/m² | - |
| 1778160969 | 13.89° C | 87% | 1021 hPa | 0 mm | - | 9 W/m² | - |
| 1778160667 | 13.89° C | 88% | 1020.9 hPa | 0 mm | - | 10 W/m² | - |
| 1778160364 | 13.33° C | 90% | 1020.9 hPa | 0 mm | - | 9 W/m² | - |
| 1778160060 | 13.33° C | 94% | 1020.9 hPa | 0 mm | - | 8 W/m² | - |
| 1778159757 | 13.33° C | 95% | 1020.7 hPa | 0 mm | - | 9 W/m² | - |
| 1778159455 | 13.33° C | 95% | 1020.7 hPa | 0 mm | - | 10 W/m² | - |
| 1778159151 | 12.78° C | 95% | 1020.8 hPa | 0 mm | - | 7 W/m² | - |
* Rain latest hour (hover to see other rain measurements)
** Current wind speed in m/s (hover to see current wind gust speed)